Location: Muenchen
(48.1800°N, 11.5800°E)
Time: 02:45:19
(UTC+01:00)

Sich 1 Rocket - Visible Passes

Search period start: 02 February 2015 00:00
Search period end: 12 February 2015 00:00
Orbit: 617 x 654 km, 82.5° (Epoch: 01 February)

Date Brightness Start Highest point End Pass type
(mag) Time Alt. Az. Time Alt. Az. Time Alt. Az.
02 Feb 6.2 18:56:43 10° WSW 19:00:15 21° WNW 19:03:41 10° NNW visible
03 Feb 3.7 17:39:40 10° S 17:44:14 88° W 17:48:49 10° N visible
03 Feb 6.7 19:21:32 10° W 19:23:18 12° WNW 19:24:51 10° NW visible
04 Feb 4.9 18:02:31 10° SSW 18:06:55 45° WNW 18:11:17 10° N visible
05 Feb 6.0 18:25:58 10° SW 18:29:44 24° WNW 18:33:26 10° NNW visible
06 Feb 6.6 18:50:21 10° W 18:52:45 14° WNW 18:54:57 10° NNW visible
08 Feb 5.8 17:55:17 10° SW 17:59:14 28° WNW 18:03:08 10° N visible
09 Feb 6.4 18:19:21 10° WSW 18:22:12 16° WNW 18:24:52 10° NNW visible
